CST,Max TemperatureF,Mean TemperatureF,Min TemperatureF,Max Dew PointF,MeanDew PointF,Min DewpointF,Max Humidity, Mean Humidity, Min Humidity, Max Sea Level PressureIn, Mean Sea Level PressureIn, Min Sea Level PressureIn, Max VisibilityMiles, Mean VisibilityMiles, Min VisibilityMiles, Max Wind SpeedMPH, Mean Wind SpeedMPH, Max Gust SpeedMPH,PrecipitationIn, CloudCover, Events, WindDirDegrees
2014-1-1,16,11,6,7,4,1,80,73,66,30.50,30.30,30.11,10,7,1,20,12,25,0.05,7,Snow,5
2014-1-2,17,14,11,9,7,5,84,76,67,30.49,30.42,30.26,10,10,5,16,7,21,T,7,,121
2014-1-3,41,26,10,29,19,5,84,72,59,30.34,29.88,29.59,10,10,3,26,16,35,T,1,,198
2014-1-4,39,25,11,29,13,-1,82,67,52,30.32,30.03,29.69,10,10,10,33,19,39,0.00,4,,351
2014-1-5,13,3,-8,-2,-11,-22,69,55,41,30.69,30.52,30.33,10,10,8,31,19,39,T,3,Snow,346
2014-1-6,12,2,-9,-6,-14,-22,62,48,34,30.62,30.52,30.30,10,10,10,28,12,34,0.00,0,,285
2014-1-7,50,29,7,20,10,-5,68,48,28,30.24,30.14,30.05,10,10,7,22,10,27,T,3,Snow,319
2014-1-8,22,18,14,15,13,11,88,81,73,30.42,30.31,30.19,10,5,1,13,8,15,0.09,8,Snow,70
2014-1-9,34,23,11,27,17,8,88,79,69,30.36,30.13,29.88,9,6,1,21,11,27,0.00,6,,184
2014-1-10,40,34,27,31,28,22,100,82,64,29.84,29.66,29.52,10,6,0,16,9,23,T,7,Fog,233
2014-1-11,52,39,26,28,24,22,81,58,35,29.91,29.80,29.66,10,10,10,25,13,32,0.00,1,,262
2014-1-12,52,44,35,31,26,22,59,50,41,29.76,29.60,29.50,10,10,10,20,10,25,T,3,,268
2014-1-13,51,38,25,28,23,17,81,54,27,29.92,29.82,29.75,10,10,10,24,12,34,0.00,2,,267
2014-1-14,48,37,26,29,15,4,63,43,22,30.31,30.15,29.78,10,10,10,41,23,53,0.00,2,,326
2014-1-15,51,34,17,30,21,10,77,57,36,30.30,30.04,29.80,10,10,10,23,10,31,0.00,6,,256
2014-1-16,46,34,22,25,14,6,54,41,27,30.19,30.00,29.83,10,10,7,53,30,64,T,3,,319
2014-1-17,43,28,12,18,12,5,84,57,29,30.25,30.11,29.85,10,10,10,28,11,33,0.00,1,,262
2014-1-18,43,33,23,25,22,18,75,60,44,30.16,29.97,29.79,10,10,10,46,20,58,0.00,3,,300
2014-1-19,68,47,26,22,16,11,75,45,14,30.05,29.89,29.78,10,10,10,28,14,33,0.00,0,,275
2014-1-20,48,28,7,22,11,-4,68,48,28,30.56,30.21,29.88,10,10,10,47,21,65,0.00,2,,322
2014-1-21,32,17,2,13,1,-6,75,54,33,30.57,30.32,30.07,10,10,10,25,10,34,0.00,0,,254
2014-1-22,35,19,2,21,7,-10,75,59,43,30.70,30.35,30.15,10,10,10,32,16,40,0.00,4,,333
2014-1-23,21,7,-8,-1,-10,-15,72,49,25,30.95,30.78,30.50,10,10,10,23,12,28,0.00,0,,285
2014-1-24,55,34,13,32,18,2,67,49,30,30.45,30.05,29.85,10,10,10,31,19,40,0.00,5,,271
2014-1-25,50,43,36,34,29,25,70,58,45,30.10,29.91,29.65,10,10,10,32,15,40,T,3,Rain,298
2014-1-26,57,33,9,29,16,-8,70,50,30,30.38,29.89,29.66,10,10,10,47,23,56,T,3,,317
2014-1-27,16,8,-1,-8,-11,-13,62,45,27,30.58,30.51,30.39,10,10,10,32,10,37,0.00,0,,333
2014-1-28,24,12,0,-1,-5,-9,69,50,31,30.53,30.42,30.27,10,10,10,22,8,27,0.00,2,,269
2014-1-29,51,29,6,18,5,-4,69,42,14,30.25,29.92,29.52,10,10,10,26,15,34,0.00,1,,203
2014-1-30,44,33,21,27,14,10,68,49,30,30.10,29.77,29.40,10,9,3,33,16,41,0.01,4,Snow,345
2014-1-31,21,18,15,16,14,11,88,81,73,30.19,30.04,29.93,10,4,1,13,5,15,0.17,8,Snow,61